| time (UTC) | temp F | wind direction | speed MPH | gust MPH | rain 1hr in | rain 24hr in | rain mn in | humidity % | barometer mb |
| 20260507144403 | 48 | 194 | 5.0 | 19.0 | 0.00 | 0.31 | 0.00 | 65 | 1007.7 |
| 20260507143424 | 46 | 200 | 6.0 | 18.0 | 0.00 | 0.31 | 0.00 | 66 | 1007.8 |
| 20260507142446 | 47 | 220 | 7.0 | 16.0 | 0.00 | 0.33 | 0.00 | 66 | 1007.8 |
| 20260507141403 | 46 | 246 | 7.0 | 17.0 | 0.00 | 0.33 | 0.00 | 69 | 1007.8 |
| 20260507140425 | 46 | 223 | 7.0 | 20.0 | 0.00 | 0.34 | 0.00 | 71 | 1007.8 |
| 20260507135424 | 46 | 218 | 9.0 | 16.0 | 0.00 | 0.36 | 0.00 | 71 | 1007.8 |
| 20260507134403 | 45 | 225 | 9.0 | 21.0 | 0.00 | 0.36 | 0.00 | 73 | 1007.8 |
| 20260507133403 | 45 | 222 | 8.0 | 18.0 | 0.00 | 0.37 | 0.00 | 73 | 1007.7 |
| 20260507132403 | 44 | 226 | 6.0 | 14.0 | 0.00 | 0.37 | 0.00 | 75 | 1007.7 |
| 20260507131403 | 44 | 223 | 7.0 | 17.0 | 0.00 | 0.37 | 0.00 | 74 | 1007.8 |
| 20260507130403 | 44 | 237 | 7.0 | 20.0 | 0.00 | 0.37 | 0.00 | 77 | 1007.9 |
| 20260507125403 | 43 | 264 | 11.0 | 17.0 | 0.00 | 0.38 | 0.00 | 78 | 1007.9 |
| 20260507124404 | 43 | 252 | 8.0 | 16.0 | 0.00 | 0.38 | 0.00 | 76 | 1007.8 |
| 20260507123403 | 43 | 241 | 8.0 | 16.0 | 0.00 | 0.39 | 0.00 | 78 | 1007.6 |
| 20260507122403 | 42 | 235 | 6.0 | 17.0 | 0.00 | 0.40 | 0.00 | 82 | 1007.7 |
| 20260507121403 | 41 | 241 | 8.0 | 16.0 | 0.00 | 0.40 | 0.00 | 85 | 1007.7 |
| 20260507120403 | 41 | 239 | 10.0 | 16.0 | 0.00 | 0.42 | 0.00 | 85 | 1007.7 |
| 20260507115403 | 42 | 243 | 8.0 | 15.0 | 0.00 | 0.43 | 0.00 | 89 | 1007.5 |
| 20260507114424 | 41 | 255 | 5.0 | 11.0 | 0.00 | 0.44 | 0.00 | 93 | 1007.5 |
| 20260507113403 | 40 | 217 | 4.0 | 10.0 | 0.00 | 0.45 | 0.00 | 94 | 1007.2 |
| 20260507112402 | 40 | 187 | 3.0 | 10.0 | 0.00 | 0.46 | 0.00 | 94 | 1007.0 |
| 20260507111424 | 40 | 220 | 4.0 | 11.0 | 0.00 | 0.47 | 0.00 | 95 | 1007.1 |
| 20260507105402 | 41 | 207 | 5.0 | 13.0 | 0.00 | 0.47 | 0.00 | 95 | 1007.0 |
| 20260507104424 | 41 | 207 | 5.0 | 12.0 | 0.00 | 0.48 | 0.00 | 95 | 1007.0 |
| 20260507103424 | 41 | 178 | 3.0 | 9.0 | 0.00 | 0.48 | 0.00 | 95 | 1006.9 |
| 20260507102403 | 41 | 174 | 3.0 | 7.0 | 0.00 | 0.48 | 0.00 | 95 | 1006.9 |
| 20260507101403 | 41 | 178 | 2.0 | 7.0 | 0.00 | 0.48 | 0.00 | 95 | 1006.8 |
| 20260507100424 | 41 | 168 | 1.0 | 6.0 | 0.00 | 0.48 | 0.00 | 95 | 1006.8 |
| 20260507095403 | 41 | 194 | 2.0 | 4.0 | 0.00 | 0.48 | 0.00 | 95 | 1006.9 |
| 20260507094445 | 41 | 194 | 3.0 | 6.0 | 0.00 | 0.48 | 0.00 | 95 | 1006.9 |
| 20260507093403 | 41 | 175 | 4.0 | 7.0 | 0.00 | 0.49 | 0.00 | 95 | 1006.7 |
| 20260507092402 | 41 | 178 | 2.0 | 8.0 | 0.00 | 0.49 | 0.00 | 95 | 1006.6 |
| 20260507091403 | 41 | 185 | 2.0 | 7.0 | 0.00 | 0.50 | 0.00 | 95 | 1006.7 |
| 20260507090402 | 41 | 183 | 1.0 | 6.0 | 0.00 | 0.51 | 0.00 | 95 | 1006.6 |
| 20260507085424 | 40 | 185 | 3.0 | 8.0 | 0.00 | 0.51 | 0.00 | 95 | 1006.6 |
| 20260507084403 | 40 | 187 | 2.0 | 8.0 | 0.00 | 0.51 | 0.00 | 95 | 1006.6 |
| 20260507083404 | 40 | 158 | 2.0 | 8.0 | 0.00 | 0.51 | 0.00 | 95 | 1006.6 |
| 20260507082403 | 40 | 176 | 3.0 | 8.0 | 0.00 | 0.51 | 0.00 | 95 | 1006.8 |
| 20260507081403 | 40 | 186 | 1.0 | 6.0 | 0.00 | 0.51 | 0.00 | 95 | 1006.8 |
| 20260507080403 | 40 | 185 | 3.0 | 6.0 | 0.00 | 0.51 | 0.00 | 95 | 1006.9 |
| 20260507075403 | 40 | 178 | 3.0 | 10.0 | 0.00 | 0.52 | 0.00 | 95 | 1007.0 |
| 20260507074403 | 40 | 189 | 2.0 | 7.0 | 0.00 | 0.52 | 0.00 | 95 | 1007.2 |
| 20260507073403 | 40 | 224 | 4.0 | 7.0 | 0.00 | 0.52 | 0.00 | 95 | 1007.2 |
| 20260507072403 | 40 | 199 | 2.0 | 6.0 | 0.00 | 0.52 | 0.00 | 95 | 1007.2 |
| 20260507070402 | 40 | 194 | 0.0 | 6.0 | 0.00 | 0.52 | 0.00 | 94 | 1006.8 |
| 20260507065403 | 40 | 180 | 0.0 | 7.0 | 0.00 | 0.52 | 0.00 | 95 | 1006.7 |
| 20260507063404 | 40 | 179 | 0.0 | 4.0 | 0.00 | 0.52 | 0.00 | 95 | 1006.6 |
| 20260507062404 | 40 | 181 | 2.0 | 6.0 | 0.00 | 0.52 | 0.00 | 95 | 1006.7 |
| 20260507061403 | 40 | 187 | 1.0 | 4.0 | 0.00 | 0.52 | 0.00 | 95 | 1006.8 |
| 20260507060404 | 40 | 187 | 2.0 | 5.0 | 0.00 | 0.52 | 0.00 | 95 | 1006.9 |
| 20260507055404 | 39 | 263 | 0.0 | 3.0 | 0.00 | 0.52 | 0.00 | 95 | 1007.0 |
| 20260507054404 | 38 | 267 | 0.0 | 0.0 | 0.00 | 0.52 | 0.00 | 94 | 1006.8 |
| 20260507053403 | 38 | 267 | 0.0 | 0.0 | 0.00 | 0.52 | 0.00 | 94 | 1007.1 |
| 20260507052425 | 38 | 267 | 0.0 | 0.0 | 0.00 | 0.53 | 0.00 | 94 | 1007.2 |
| 20260507051404 | 38 | 267 | 0.0 | 0.0 | 0.00 | 0.53 | 0.00 | 94 | 1007.2 |
| 20260507050404 | 38 | 267 | 0.0 | 0.0 | 0.00 | 0.53 | 0.00 | 94 | 1007.4 |
| 20260507045404 | 38 | 267 | 0.0 | 0.0 | 0.00 | 0.53 | 0.00 | 94 | 1007.5 |
| 20260507043404 | 39 | 267 | 0.0 | 0.0 | 0.00 | 0.55 | 0.00 | 94 | 1007.8 |
| 20260507042403 | 39 | 267 | 0.0 | 0.0 | 0.00 | 0.56 | 0.00 | 93 | 1007.8 |
| 20260507041404 | 39 | 267 | 0.0 | 0.0 | 0.00 | 0.57 | 0.00 | 94 | 1007.7 |
| 20260507040403 | 39 | 267 | 0.0 | 0.0 | 0.00 | 0.58 | 0.00 | 94 | 1007.8 |
| 20260507035404 | 39 | 267 | 0.0 | 0.0 | 0.00 | 0.57 | 0.57 | 93 | 1007.8 |
| 20260507034404 | 40 | 267 | 0.0 | 0.0 | 0.00 | 0.59 | 0.57 | 93 | 1007.8 |
| 20260507033403 | 40 | 267 | 0.0 | 0.0 | 0.00 | 0.60 | 0.57 | 93 | 1007.7 |
| 20260507032404 | 40 | 267 | 0.0 | 0.0 | 0.00 | 0.60 | 0.57 | 93 | 1007.8 |
| 20260507031404 | 41 | 267 | 0.0 | 0.0 | 0.00 | 0.60 | 0.57 | 93 | 1007.9 |
| 20260507030404 | 41 | 267 | 0.0 | 0.0 | 0.00 | 0.62 | 0.57 | 94 | 1007.9 |
| 20260507025403 | 42 | 267 | 0.0 | 0.0 | 0.00 | 0.63 | 0.57 | 94 | 1007.9 |
| 20260507024404 | 42 | 267 | 0.0 | 0.0 | 0.00 | 0.64 | 0.57 | 94 | 1007.9 |
| 20260507023403 | 42 | 267 | 0.0 | 0.0 | 0.00 | 0.64 | 0.57 | 94 | 1007.9 |
| 20260507022404 | 42 | 267 | 0.0 | 0.0 | 0.00 | 0.64 | 0.57 | 94 | 1007.9 |
| 20260507021404 | 42 | 267 | 0.0 | 0.0 | 0.00 | 0.64 | 0.57 | 94 | 1007.8 |
| 20260507020404 | 42 | 267 | 0.0 | 0.0 | 0.00 | 0.64 | 0.57 | 94 | 1007.7 |
| 20260507015403 | 42 | 267 | 0.0 | 0.0 | 0.00 | 0.64 | 0.57 | 94 | 1007.7 |
| 20260507014404 | 42 | 267 | 0.0 | 0.0 | 0.00 | 0.64 | 0.57 | 94 | 1007.9 |
| 20260507013426 | 42 | 267 | 0.0 | 0.0 | 0.00 | 0.64 | 0.57 | 94 | 1007.8 |
| 20260507012403 | 42 | 267 | 0.0 | 0.0 | 0.00 | 0.64 | 0.57 | 94 | 1007.9 |
| 20260507010403 | 42 | 267 | 0.0 | 0.0 | 0.00 | 0.64 | 0.57 | 94 | 1008.0 |
| 20260507005405 | 42 | 267 | 0.0 | 6.0 | 0.00 | 0.64 | 0.57 | 94 | 1007.7 |
| 20260507004404 | 42 | 266 | 0.0 | 3.0 | 0.00 | 0.64 | 0.57 | 94 | 1007.8 |
| 20260507003403 | 42 | 266 | 1.0 | 6.0 | 0.00 | 0.64 | 0.57 | 93 | 1007.6 |
| 20260507002405 | 42 | 294 | 0.0 | 5.0 | 0.00 | 0.64 | 0.57 | 93 | 1007.5 |
| 20260507001404 | 43 | 325 | 0.0 | 0.0 | 0.00 | 0.64 | 0.57 | 93 | 1007.3 |
| 20260507000405 | 43 | 325 | 0.0 | 0.0 | 0.00 | 0.64 | 0.57 | 93 | 1007.1 |
| 20260506235425 | 43 | 325 | 0.0 | 0.0 | 0.00 | 0.64 | 0.57 | 93 | 1006.8 |
| 20260506234403 | 43 | 325 | 0.0 | 0.0 | 0.00 | 0.64 | 0.57 | 93 | 1006.7 |
| 20260506233404 | 43 | 325 | 0.0 | 3.0 | 0.00 | 0.64 | 0.57 | 93 | 1006.6 |
| 20260506232424 | 43 | 325 | 0.0 | 0.0 | 0.00 | 0.64 | 0.57 | 93 | 1006.4 |
| 20260506231404 | 43 | 325 | 0.0 | 1.0 | 0.00 | 0.64 | 0.57 | 93 | 1006.2 |
| 20260506230425 | 43 | 325 | 0.0 | 2.0 | 0.00 | 0.64 | 0.57 | 93 | 1006.3 |
| 20260506225403 | 43 | 325 | 0.0 | 0.0 | 0.00 | 0.64 | 0.57 | 94 | 1006.3 |
| 20260506224404 | 43 | 325 | 0.0 | 0.0 | 0.00 | 0.64 | 0.57 | 93 | 1006.5 |
| 20260506223403 | 43 | 325 | 0.0 | 3.0 | 0.00 | 0.64 | 0.57 | 93 | 1006.6 |
| 20260506222403 | 43 | 325 | 0.0 | 1.0 | 0.00 | 0.64 | 0.57 | 93 | 1006.5 |
| 20260506221403 | 43 | 324 | 0.0 | 3.0 | 0.00 | 0.64 | 0.57 | 93 | 1006.6 |
| 20260506220403 | 43 | 325 | 0.0 | 1.0 | 0.00 | 0.64 | 0.57 | 93 | 1006.7 |
| 20260506215403 | 43 | 325 | 0.0 | 0.0 | 0.01 | 0.64 | 0.57 | 93 | 1006.4 |
| 20260506214404 | 43 | 325 | 0.0 | 5.0 | 0.01 | 0.64 | 0.57 | 93 | 1006.6 |
| 20260506213403 | 43 | 325 | 0.0 | 6.0 | 0.01 | 0.64 | 0.57 | 93 | 1006.5 |
| 20260506212403 | 43 | 343 | 1.0 | 5.0 | 0.01 | 0.64 | 0.57 | 93 | 1006.4 |
| 20260506211403 | 43 | 316 | 2.0 | 4.0 | 0.00 | 0.63 | 0.56 | 93 | 1006.1 |
| 20260506210404 | 43 | 319 | 0.0 | 6.0 | 0.00 | 0.63 | 0.56 | 93 | 1006.2 |
| 20260506205403 | 43 | 274 | 2.0 | 4.0 | 0.03 | 0.63 | 0.56 | 93 | 1006.5 |
| 20260506204425 | 43 | 272 | 3.0 | 8.0 | 0.03 | 0.63 | 0.56 | 93 | 1006.5 |
| 20260506203404 | 44 | 350 | 1.0 | 5.0 | 0.03 | 0.63 | 0.56 | 93 | 1006.3 |
| 20260506202403 | 43 | 325 | 0.0 | 4.0 | 0.02 | 0.62 | 0.55 | 93 | 1006.3 |
| 20260506201403 | 44 | 300 | 0.0 | 7.0 | 0.01 | 0.62 | 0.54 | 93 | 1006.2 |
| 20260506200403 | 44 | 354 | 1.0 | 4.0 | 0.01 | 0.70 | 0.54 | 93 | 1006.2 |
| 20260506195404 | 44 | 351 | 1.0 | 4.0 | 0.01 | 0.72 | 0.53 | 93 | 1006.1 |
| 20260506194425 | 44 | 351 | 0.0 | 5.0 | 0.01 | 0.72 | 0.53 | 93 | 1006.0 |
| 20260506193446 | 44 | 354 | 1.0 | 5.0 | 0.00 | 0.71 | 0.52 | 93 | 1005.9 |
| 20260506192403 | 44 | 12 | 0.0 | 4.0 | 0.00 | 0.71 | 0.52 | 93 | 1005.8 |
| 20260506191403 | 44 | 12 | 1.0 | 4.0 | 0.00 | 0.71 | 0.52 | 93 | 1005.8 |
| 20260506190426 | 43 | 342 | 1.0 | 4.0 | 0.00 | 0.77 | 0.52 | 93 | 1005.9 |
| 20260506185403 | 43 | 351 | 0.0 | 3.0 | 0.02 | 0.78 | 0.52 | 93 | 1005.9 |
| 20260506184424 | 43 | 354 | 1.0 | 4.0 | 0.02 | 0.78 | 0.52 | 93 | 1005.9 |
| 20260506183403 | 43 | 354 | 0.0 | 5.0 | 0.01 | 0.78 | 0.51 | 93 | 1006.1 |
| 20260506182403 | 43 | 9 | 3.0 | 9.0 | 0.01 | 0.83 | 0.51 | 93 | 1006.4 |
| 20260506181404 | 43 | 343 | 2.0 | 6.0 | 0.00 | 0.84 | 0.50 | 93 | 1006.4 |
| 20260506180403 | 43 | 12 | 2.0 | 7.0 | 0.00 | 0.84 | 0.50 | 93 | 1006.6 |
| 20260506175403 | 43 | 5 | 0.0 | 3.0 | 0.02 | 0.84 | 0.50 | 93 | 1006.6 |
| 20260506174404 | 42 | 5 | 1.0 | 11.0 | 0.02 | 0.84 | 0.50 | 93 | 1006.7 |
| 20260506173404 | 43 | 338 | 2.0 | 6.0 | 0.01 | 0.83 | 0.49 | 93 | 1006.7 |
| 20260506172403 | 42 | 328 | 0.0 | 6.0 | 0.01 | 0.83 | 0.49 | 93 | 1006.7 |
| 20260506171403 | 42 | 313 | 0.0 | 8.0 | 0.00 | 0.82 | 0.48 | 93 | 1006.8 |
| 20260506170403 | 42 | 351 | 1.0 | 8.0 | 0.00 | 0.82 | 0.48 | 93 | 1006.5 |
| 20260506165403 | 42 | 335 | 1.0 | 4.0 | 0.06 | 0.81 | 0.47 | 93 | 1006.9 |
| 20260506164402 | 42 | 360 | 0.0 | 5.0 | 0.05 | 0.80 | 0.46 | 93 | 1006.9 |
| 20260506163403 | 42 | 349 | 1.0 | 6.0 | 0.04 | 0.79 | 0.45 | 93 | 1007.1 |
| 20260506162445 | 42 | 340 | 1.0 | 9.0 | 0.03 | 0.78 | 0.44 | 93 | 1007.1 |
| 20260506161403 | 42 | 348 | 0.0 | 9.0 | 0.02 | 0.77 | 0.43 | 93 | 1007.1 |
| 20260506160424 | 42 | 334 | 2.0 | 8.0 | 0.01 | 0.76 | 0.42 | 92 | 1007.1 |
| 20260506155403 | 42 | 12 | 0.0 | 5.0 | 0.11 | 0.74 | 0.40 | 92 | 1007.3 |
| 20260506154403 | 42 | 19 | 0.0 | 4.0 | 0.09 | 0.72 | 0.38 | 92 | 1007.3 |
| 20260506153403 | 42 | 9 | 0.0 | 5.0 | 0.07 | 0.70 | 0.36 | 92 | 1007.4 |
| 20260506152403 | 42 | 292 | 1.0 | 5.0 | 0.05 | 0.68 | 0.34 | 92 | 1007.6 |
| 20260506151403 | 42 | 351 | 2.0 | 6.0 | 0.03 | 0.66 | 0.32 | 92 | 1007.2 |
| 20260506150445 | 43 | 302 | 1.0 | 7.0 | 0.01 | 0.64 | 0.30 | 92 | 1007.0 |
| 20260506145403 | 42 | 6 | 1.0 | 8.0 | 0.06 | 0.63 | 0.29 | 92 | 1006.9 |